SQ2CET-13 Weather Reports


time (UTC)temp
C
wind
direction
speed
KPH
gust
KPH
rain 1hr
cm
rain 24hr
cm
rain mn
cm
humidity
%
barometer
mb
20260831031102 16 178 3.2 8.0 0.00 0.00 0.00 85 1013.5
20260831030106 16 177 1.6 8.0 0.00 0.00 0.00 85 1013.6
20260831025028 16 195 3.2 8.0 0.00 0.00 0.00 85 1013.6
20260831024050 16 219 3.2 9.7 0.00 0.00 0.00 84 1013.6
20260831023114 16 211 4.8 8.0 0.00 0.00 0.00 84 1013.4
20260831022028 16 230 4.8 9.7 0.00 0.00 0.00 84 1013.6
20260831021045 16 252 4.8 9.7 0.00 0.00 0.00 83 1013.5
20260831020106 16 246 3.2 9.7 0.00 0.00 0.00 83 1013.4
20260831015029 16 244 3.2 8.0 0.00 0.00 0.00 83 1013.4
20260831014044 16 247 6.4 11.3 0.00 0.00 0.00 83 1013.4
20260831013107 17 239 6.4 11.3 0.00 0.00 0.00 82 1013.3
20260831012026 17 254 4.8 9.7 0.00 0.00 0.00 81 1013.3
20260831011049 17 241 6.4 19.3 0.00 0.00 0.00 80 1013.3
20260831010113 17 240 6.4 11.3 0.00 0.00 0.00 80 1013.4
20260831005033 17 254 6.4 14.5 0.00 0.00 0.00 80 1013.4
20260831004117 17 240 8.0 16.1 0.00 0.00 0.00 80 1013.5
20260831003038 17 239 6.4 12.9 0.00 0.00 0.00 80 1013.4
20260831002042 17 246 4.8 12.9 0.00 0.00 0.00 80 1013.3
20260831001126 17 226 8.0 11.3 0.00 0.00 0.00 80 1013.4
20260831000026 17 234 4.8 12.9 0.00 0.00 0.00 79 1013.4
20260830235049 17 245 4.8 14.5 0.00 0.00 0.00 79 1013.4
20260830234113 17 228 8.0 19.3 0.00 0.00 0.00 78 1013.5
20260830233033 17 242 4.8 12.9 0.00 0.00 0.00 78 1013.3
20260830232117 17 238 6.4 12.9 0.00 0.00 0.00 78 1013.2
20260830231017 18 238 6.4 12.9 0.00 0.00 0.00 78 1013.3
20260830230042 18 236 9.7 14.5 0.00 0.00 0.00 77 1013.3
20260830225107 18 233 9.7 17.7 0.00 0.00 0.00 77 1013.2
20260830224025 18 238 4.8 11.3 0.00 0.00 0.00 79 1013.1
20260830223111 18 243 3.2 11.3 0.00 0.00 0.00 78 1013.1
20260830222058 18 236 6.4 16.1 0.00 0.00 0.00 77 1013.0
20260830221020 18 240 6.4 17.7 0.00 0.00 0.00 76 1013.0
20260830220042 19 234 11.3 20.9 0.00 0.00 0.00 74 1013.0
20260830215106 18 239 6.4 22.5 0.00 0.00 0.00 76 1012.8
20260830214025 18 231 8.0 14.5 0.00 0.00 0.00 77 1012.8
20260830213111 18 229 4.8 11.3 0.00 0.00 0.00 79 1012.6
20260830212106 18 217 1.6 8.0 0.00 0.00 0.00 79 1012.6
20260830211025 18 222 3.2 8.0 0.00 0.00 0.00 77 1012.6
20260830210049 19 217 4.8 11.3 0.00 0.00 0.00 77 1012.6
20260830205113 19 211 4.8 11.3 0.00 0.00 0.00 77 1012.5
20260830204034 19 205 4.8 9.7 0.00 0.00 0.00 77 1012.6
20260830203058 19 224 3.2 9.7 0.00 0.00 0.00 77 1012.6
20260830202019 19 223 3.2 11.3 0.00 0.00 0.00 77 1012.4
20260830201041 20 217 4.8 9.7 0.00 0.00 0.00 76 1012.4
20260830200105 19 232 4.8 9.7 0.00 0.00 0.00 76 1012.4
20260830195146 19 186 1.6 6.4 0.00 0.00 0.00 77 1012.4
20260830194049 20 195 1.6 4.8 0.00 0.00 0.00 76 1012.4
20260830193113 20 202 3.2 9.7 0.00 0.00 0.00 76 1012.5
20260830192034 20 228 3.2 6.4 0.00 0.00 0.00 76 1012.4
20260830191057 19 224 3.2 8.0 0.00 0.00 0.00 77 1012.4
20260830190017 20 273 1.6 6.4 0.00 0.00 0.00 77 1012.3
20260830185042 20 254 3.2 9.7 0.00 0.00 0.00 75 1012.2
20260830184105 20 248 4.8 11.3 0.00 0.00 0.00 75 1012.2
20260830183026 20 198 6.4 12.9 0.00 0.00 0.00 74 1012.0
20260830182050 20 225 6.4 19.3 0.00 0.00 0.00 73 1011.8
20260830181113 20 220 8.0 17.7 0.00 0.00 0.00 73 1011.8
20260830180033 20 205 4.8 14.5 0.00 0.00 0.00 73 1011.6
20260830175057 20 213 4.8 11.3 0.00 0.00 0.00 72 1011.5
20260830174058 20 214 8.0 12.9 0.00 0.00 0.00 72 1011.3
20260830173041 20 212 3.2 8.0 0.00 0.00 0.00 71 1011.3
20260830172057 21 208 4.8 16.1 0.00 0.00 0.00 70 1011.3
20260830171039 21 206 6.4 20.9 0.00 0.00 0.00 70 1011.3
20260830170042 21 208 6.4 14.5 0.00 0.00 0.00 68 1011.2
20260830165105 21 193 4.8 14.5 0.00 0.00 0.00 67 1011.3
20260830164046 21 227 6.4 20.9 0.00 0.00 0.00 66 1011.3
20260830163049 22 190 4.8 17.7 0.00 0.00 0.00 64 1011.3
20260830162113 22 212 8.0 20.9 0.00 0.00 0.00 62 1011.2
20260830161054 23 221 9.7 29.0 0.00 0.00 0.00 58 1011.2
20260830160118 25 222 8.0 24.1 0.00 0.00 0.00 54 1011.0
20260830155105 25 241 4.8 17.7 0.00 0.00 0.00 53 1011.0
20260830154027 24 225 8.0 20.9 0.00 0.00 0.00 54 1011.0
20260830153045 23 223 8.0 22.5 0.00 0.00 0.00 55 1010.9
20260830152107 24 224 11.3 27.4 0.00 0.00 0.00 53 1010.9
20260830151025 25 218 12.9 32.2 0.00 0.00 0.00 53 1011.1
20260830150050 24 233 6.4 22.5 0.00 0.00 0.00 53 1011.2
20260830145113 25 247 9.7 20.9 0.00 0.00 0.00 50 1011.1
20260830144114 25 236 12.9 25.7 0.00 0.00 0.00 52 1011.1
20260830143048 25 222 11.3 38.6 0.00 0.00 0.00 51 1011.2
20260830142103 25 242 8.0 22.5 0.00 0.00 0.00 52 1011.1
20260830141106 25 230 11.3 29.0 0.00 0.00 0.00 52 1011.1
20260830135114 25 219 9.7 22.5 0.00 0.00 0.00 52 1011.1
20260830134125 25 225 9.7 29.0 0.00 0.00 0.00 52 1011.1
20260830133028 23 236 12.9 30.6 0.00 0.00 0.00 55 1011.3
20260830132043 23 202 9.7 32.2 0.00 0.00 0.00 55 1011.2
20260830131107 24 222 11.3 35.4 0.00 0.00 0.00 53 1011.3
20260830130025 25 220 6.4 17.7 0.00 0.00 0.00 53 1011.3
20260830125110 24 213 11.3 25.7 0.00 0.00 0.00 55 1011.3
20260830124107 23 222 8.0 25.7 0.00 0.00 0.00 55 1011.3
20260830123026 23 228 6.4 22.5 0.00 0.00 0.00 56 1011.3
20260830122111 23 226 11.3 32.2 0.00 0.00 0.00 55 1011.4
20260830121113 23 209 11.3 22.5 0.00 0.00 0.00 55 1011.3
20260830120033 23 214 9.7 22.5 0.00 0.00 0.00 55 1011.3
20260830115057 24 231 9.7 27.4 0.00 0.00 0.00 53 1011.3
20260830114115 23 211 6.4 19.3 0.00 0.00 0.00 54 1011.6
20260830113034 23 207 8.0 25.7 0.00 0.00 0.00 55 1011.6
20260830112110 24 203 12.9 30.6 0.00 0.00 0.00 52 1011.7
20260830111114 24 198 6.4 17.7 0.00 0.00 0.00 53 1011.7
20260830110034 23 219 8.0 27.4 0.00 0.00 0.00 54 1011.6
20260830105051 23 225 4.8 20.9 0.00 0.00 0.00 54 1011.8
20260830104135 23 222 4.8 17.7 0.00 0.00 0.00 56 1011.9
20260830103034 22 214 12.9 24.1 0.00 0.00 0.00 55 1012.0
20260830102058 22 230 9.7 25.7 0.00 0.00 0.00 56 1012.0
20260830101018 22 227 14.5 27.4 0.00 0.00 0.00 57 1012.1
20260830100106 22 225 8.0 22.5 0.00 0.00 0.00 57 1012.1
20260830095105 22 209 9.7 22.5 0.00 0.00 0.00 56 1012.0
20260830094025 21 215 8.0 25.7 0.00 0.00 0.00 58 1012.2
20260830093051 22 206 4.8 20.9 0.00 0.00 0.00 57 1012.2
20260830092113 21 209 4.8 20.9 0.00 0.00 0.00 60 1012.1
20260830091034 21 215 9.7 24.1 0.00 0.00 0.00 59 1012.1
20260830090058 21 218 8.0 22.5 0.00 0.00 0.00 60 1012.3
20260830085039 21 216 6.4 20.9 0.00 0.00 0.00 60 1012.3
20260830084041 21 219 8.0 27.4 0.00 0.00 0.00 60 1012.1
20260830083106 20 207 6.4 24.1 0.00 0.00 0.00 60 1012.2
20260830082027 20 185 8.0 22.5 0.00 0.00 0.00 61 1012.2
20260830081130 20 206 6.4 25.7 0.00 0.00 0.00 62 1012.2
20260830080114 20 197 4.8 17.7 0.00 0.00 0.00 63 1012.1
20260830075033 20 213 3.2 25.7 0.00 0.00 0.00 63 1012.0
20260830074058 20 231 6.4 17.7 0.00 0.05 0.00 63 1012.0
20260830073018 20 207 6.4 14.5 0.00 0.05 0.00 63 1012.1
20260830072041 20 198 6.4 14.5 0.00 0.10 0.00 64 1012.1
20260830071106 20 182 4.8 12.9 0.00 0.15 0.00 64 1012.2
20260830070026 20 184 6.4 19.3 0.00 0.23 0.00 62 1012.3
20260830065049 19 165 8.0 14.5 0.00 0.33 0.00 64 1012.2
20260830064134 19 168 9.7 19.3 0.00 0.36 0.00 65 1012.3
20260830063035 18 170 8.0 16.1 0.00 0.36 0.00 66 1012.3
20260830062057 18 191 6.4 17.7 0.00 0.41 0.00 67 1012.2
20260830061018 18 181 6.4 14.5 0.00 0.48 0.00 67 1012.4
20260830060041 18 167 4.8 16.1 0.00 0.61 0.00 67 1012.5
20260830055105 18 188 6.4 11.3 0.00 0.86 0.00 69 1012.5
20260830054028 17 180 4.8 9.7 0.00 0.97 0.00 71 1012.7
20260830053109 17 197 6.4 11.3 0.00 1.04 0.00 71 1012.7
20260830052114 17 189 3.2 16.1 0.00 1.09 0.00 72 1012.7
20260830051055 17 214 3.2 9.7 0.00 1.19 0.00 72 1012.7
20260830050057 17 206 4.8 12.9 0.00 1.30 0.00 73 1012.7
20260830045024 17 194 6.4 12.9 0.00 1.35 0.00 73 1012.7
20260830044041 17 189 4.8 14.5 0.00 1.37 0.00 73 1012.7
20260830043106 17 163 4.8 16.1 0.00 1.42 0.00 74 1012.7
20260830042027 17 172 4.8 12.9 0.00 1.45 0.00 74 1012.8
20260830041049 16 185 4.8 11.3 0.00 1.47 0.00 74 1012.8
20260830040115 16 169 3.2 8.0 0.00 1.50 0.00 75 1012.8
20260830035034 16 61 3.2 6.4 0.00 1.52 0.00 75 1012.8
20260830034058 16 60 1.6 9.7 0.00 1.55 0.00 75 1013.0
20260830033019 16 188 4.8 11.3 0.00 1.55 0.00 76 1013.0
20260830032042 16 173 4.8 9.7 0.00 1.55 0.00 77 1013.1